N78AL LPMA-LPPT

Flight info

Callsign N78AL
Flight time N/A
Altitude 40000
Route DEGUN DCT NARTA DCT ESUTI
Aircraft CL60/M-SADE3FGHIJ3J4J7P2RWXY/HB1D1

Departure

Time 2026-05-01 09:01
Airport Cristiano Ronaldo International Airport (LPMA)

Arrival

Time N/A
Airport Lisbon Humberto Delgado Airport (LPPT)
Time Latitude Longitude Altitude Speed Heading
2026-05-01 08:56 32.69257 -16.77789 172 ft 0 kts 136°
2026-05-01 08:57 32.69268 -16.77801 175 ft 2 kts 136°
2026-05-01 08:57 32.69279 -16.77813 177 ft 2 kts 136°
2026-05-01 08:58 32.69289 -16.77825 179 ft 2 kts 137°
2026-05-01 08:58 32.69303 -16.77830 182 ft 2 kts 190°
2026-05-01 08:58 32.69312 -16.77824 183 ft 1 kts 226°
2026-05-01 08:58 32.69313 -16.77823 183 ft 0 kts 226°
2026-05-01 09:00 32.69307 -16.77830 182 ft 6 kts 226°
2026-05-01 09:00 32.69289 -16.77859 181 ft 6 kts 264°
2026-05-01 09:00 32.69289 -16.77876 182 ft 0 kts 270°
2026-05-01 09:00 32.69306 -16.77936 188 ft 13 kts 319°
2026-05-01 09:01 32.69392 -16.77891 200 ft 13 kts 42°
2026-05-01 09:01 32.69607 -16.77644 216 ft 88 kts 45°
2026-05-01 09:01 32.70238 -16.76911 263 ft 148 kts 43°
2026-05-01 09:01 32.70960 -16.76018 811 ft 162 kts 56°
2026-05-01 09:02 32.71312 -16.74655 1193 ft 182 kts 96°
2026-05-01 09:02 32.70929 -16.73245 1625 ft 181 kts 114°
2026-05-01 09:02 32.70423 -16.71842 2091 ft 189 kts 114°
2026-05-01 09:02 32.69887 -16.70336 2662 ft 208 kts 113°
2026-05-01 09:03 32.69299 -16.68661 3180 ft 233 kts 112°
2026-05-01 09:03 32.68685 -16.66865 3591 ft 235 kts 112°
2026-05-01 09:03 32.68098 -16.65028 4007 ft 243 kts 110°
2026-05-01 09:03 32.67482 -16.63061 4505 ft 267 kts 110°
2026-05-01 09:04 32.66822 -16.60950 5109 ft 278 kts 110°
2026-05-01 09:04 32.66151 -16.58800 5745 ft 282 kts 110°
2026-05-01 09:04 32.65694 -16.56521 6394 ft 289 kts 93°
2026-05-01 09:04 32.65989 -16.54073 7091 ft 306 kts 69°
2026-05-01 09:05 32.67167 -16.51924 7847 ft 315 kts 46°
2026-05-01 09:05 32.68735 -16.50136 8638 ft 318 kts 43°
2026-05-01 09:05 32.70341 -16.48315 9455 ft 321 kts 43°
2026-05-01 09:05 32.71947 -16.46487 10275 ft 324 kts 43°
2026-05-01 09:06 32.73598 -16.44606 11115 ft 328 kts 43°
2026-05-01 09:06 32.75242 -16.42733 11951 ft 332 kts 43°
2026-05-01 09:06 32.76922 -16.40817 12808 ft 337 kts 42°
2026-05-01 09:06 32.78619 -16.38880 13677 ft 342 kts 42°
2026-05-01 09:07 32.80323 -16.36933 14553 ft 346 kts 42°
2026-05-01 09:07 32.82070 -16.34936 15456 ft 351 kts 42°
2026-05-01 09:07 32.83828 -16.32927 16365 ft 356 kts 42°
2026-05-01 09:07 32.85616 -16.30879 17295 ft 361 kts 42°
2026-05-01 09:08 32.87447 -16.28783 18251 ft 364 kts 42°
2026-05-01 09:08 32.89251 -16.26714 19193 ft 366 kts 42°
2026-05-01 09:08 32.91074 -16.24622 20139 ft 367 kts 42°
2026-05-01 09:08 32.92919 -16.22504 21087 ft 367 kts 42°
2026-05-01 09:09 32.94727 -16.20427 22004 ft 366 kts 42°
2026-05-01 09:09 32.96567 -16.18311 22920 ft 364 kts 42°
2026-05-01 09:09 32.98373 -16.16234 23801 ft 363 kts 42°
2026-05-01 09:09 33.00179 -16.14155 24669 ft 362 kts 42°
2026-05-01 09:10 33.01986 -16.12073 25508 ft 360 kts 41°
2026-05-01 09:10 33.03766 -16.10022 26313 ft 358 kts 41°
2026-05-01 09:10 33.05538 -16.07978 27093 ft 356 kts 41°
2026-05-01 09:10 33.07321 -16.05921 27857 ft 354 kts 41°
2026-05-01 09:11 33.09085 -16.03885 28572 ft 352 kts 41°
2026-05-01 09:11 33.10883 -16.01810 28720 ft 368 kts 41°
2026-05-01 09:11 33.12756 -15.99650 28819 ft 383 kts 41°
2026-05-01 09:11 33.14722 -15.97380 28980 ft 396 kts 41°
2026-05-01 09:12 33.16741 -15.95044 29200 ft 406 kts 42°
2026-05-01 09:12 33.18790 -15.92672 29529 ft 412 kts 42°
2026-05-01 09:12 33.20859 -15.90273 29924 ft 416 kts 41°
2026-05-01 09:12 33.22930 -15.87871 30273 ft 420 kts 41°
2026-05-01 09:13 33.25037 -15.85426 30487 ft 427 kts 42°
2026-05-01 09:13 33.27193 -15.82922 30708 ft 434 kts 42°
2026-05-01 09:13 33.29385 -15.80374 30943 ft 439 kts 42°
2026-05-01 09:13 33.31597 -15.77802 31187 ft 443 kts 42°
2026-05-01 09:14 33.33791 -15.75248 31434 ft 446 kts 42°
2026-05-01 09:14 33.36042 -15.72625 31687 ft 448 kts 42°
2026-05-01 09:14 33.38284 -15.70010 31939 ft 450 kts 42°
2026-05-01 09:14 33.40522 -15.67399 32189 ft 451 kts 42°
2026-05-01 09:15 33.42785 -15.64782 32439 ft 452 kts 41°
2026-05-01 09:15 33.45089 -15.62192 32688 ft 454 kts 40°
2026-05-01 09:15 33.47396 -15.59602 32935 ft 456 kts 40°
2026-05-01 09:15 33.49709 -15.57002 33182 ft 457 kts 41°
2026-05-01 09:16 33.52054 -15.54363 33430 ft 458 kts 40°
2026-05-01 09:16 33.54358 -15.51769 33671 ft 459 kts 41°
2026-05-01 09:16 33.56712 -15.49116 33914 ft 460 kts 40°
2026-05-01 09:17 33.61354 -15.43877 34379 ft 459 kts 40°
2026-05-01 09:17 33.63678 -15.41251 34602 ft 459 kts 40°
2026-05-01 09:17 33.68335 -15.35983 35031 ft 459 kts 40°
2026-05-01 09:18 33.70684 -15.33323 35238 ft 460 kts 41°
2026-05-01 09:18 33.75348 -15.28034 35630 ft 461 kts 41°
2026-05-01 09:19 33.80017 -15.22731 36009 ft 462 kts 40°
2026-05-01 09:19 33.82341 -15.20088 36205 ft 462 kts 40°
2026-05-01 09:19 33.84698 -15.17406 36366 ft 463 kts 40°
2026-05-01 09:20 33.89372 -15.12080 36689 ft 463 kts 40°
2026-05-01 09:20 33.94042 -15.06751 36997 ft 464 kts 40°
2026-05-01 09:21 33.98727 -15.01395 37287 ft 464 kts 40°
2026-05-01 09:21 34.01073 -14.98710 37426 ft 464 kts 40°
2026-05-01 09:21 34.05756 -14.93345 37690 ft 465 kts 40°
2026-05-01 09:22 34.10446 -14.87961 37938 ft 465 kts 40°
2026-05-01 09:22 34.15134 -14.82573 38180 ft 465 kts 40°
2026-05-01 09:23 34.17467 -14.79888 38295 ft 465 kts 40°
2026-05-01 09:23 34.22178 -14.74458 38515 ft 466 kts 40°
2026-05-01 09:24 34.26850 -14.69065 38720 ft 466 kts 40°
2026-05-01 09:24 34.29199 -14.66352 38818 ft 466 kts 40°
2026-05-01 09:24 34.33889 -14.60925 39003 ft 466 kts 40°
2026-05-01 09:25 34.38587 -14.55480 39179 ft 466 kts 40°
2026-05-01 09:25 34.43254 -14.50063 39344 ft 466 kts 40°
2026-05-01 09:26 34.45610 -14.47325 39423 ft 466 kts 39°